Hourly Data Report for February 01, 2003

TORONTO CITY
ONTARIO

43°40'00.000" N
79°24'00.000" W
112.50 m
6158355
71508
XTO

Download Data

Hourly Data (February 2003)
Hourly Data Report for February 1, 2003
TIME
LST
Temp Definition
°C
Dew Point Definition
°C
Rel Hum Definition
%
Precip. Amount Definition
mm

Wind Dir Definition
10's deg

Wind Spd Definition
km/h
Visibility Definition
km
Stn Press Definition
kPa
Hmdx Definition


Wind Chill Definition


Weather Definition


00:00 1.2 0.2 93     0 LegendMM 100.10     LegendNANA
01:00
02:00 1.7 0.7 93     0 LegendMM 99.93     LegendNANA
03:00 1.8 1.2 96     0 LegendMM 99.90     LegendNANA
04:00 1.7 1.3 97     0 LegendMM 99.84     LegendNANA
05:00 1.6 1.0 96     0 LegendMM 99.80     LegendNANA
06:00 1.5 0.9 96     0 LegendMM 99.80     LegendNANA
07:00 1.5 1.1 97     0 LegendMM 99.78     LegendNANA
08:00 1.4 0.8 96     0 LegendMM 99.80     LegendNANA
09:00 1.3 0.9 97     0 LegendMM 99.79     LegendNANA
10:00
11:00 3.0 1.7 91     0 LegendMM 99.74     LegendNANA
12:00 3.7 1.3 84     0 LegendMM 99.67     LegendNANA
13:00 4.0 1.2 82     0 LegendMM 99.60     LegendNANA
14:00 3.8 1.4 84     0 LegendMM 99.59     LegendNANA
15:00 3.4 1.0 84     0 LegendMM 99.61     LegendNANA
16:00
17:00 3.2 1.1 86     0 LegendMM 99.65     LegendNANA
18:00 2.9 1.0 87     0 LegendMM 99.69     LegendNANA
19:00 3.1 1.2 87     0 LegendMM 99.70     LegendNANA
20:00 3.4 1.0 84     0 LegendMM 99.69     LegendNANA
21:00 3.5 1.1 84     0 LegendMM 99.69     LegendNANA
22:00 3.2 0.8 84     0 LegendMM 99.70     LegendNANA
23:00 3.0 0.7 85     0 LegendMM 99.69     LegendNANA

Notes on Data Quality.

Legend

  • E = Estimated
  • M = Missing
  • NA = Not Available*
  • [empty] = Indicates an unobserved value
Date modified: